Regional Weather Roundup
Issued by NWS

Home | Current Version | Previous Version | Text Only | Print | Product List | Glossary On
Versions: 1 2 3 4 5 6 7 8 9 10 11 12 13 14 15 16 17 18 19 20 21 22 23 24 25 26 27 28 29 30 31 32 33 34 35 36 37 38 39 40 41 42 43 44 45 46 47 48 49 50
000
ASUS43 KDTX 261401
RWRMI
MICHIGAN HOURLY REGIONAL WEATHER ROUNDUP
NATIONAL WEATHER SERVICE DETROIT/PONTIAC MI
1000 AM EDT TUE MAY 26 2015

NOTE: "FAIR" INDICATES FEW OR NO CLOUDS BELOW 12,000 FEET WITH NO
SIGNIFICANT WEATHER AND/OR OBSTRUCTION TO VISIBILITY.

MIZ047>049-052>055-059>063-066>070-074>076-081>083-261500-
SOUTHEAST LOWER MICHIGAN

CITY           SKY/WX    TMP DP  RH WIND       PRES   REMARKS
ADRIAN         CLOUDY    69  64  84 SW14      30.08S
ALMA           CLOUDY    69  66  89 S9        30.02R
ANN ARBOR      CLOUDY    69  64  84 SW8       30.07S
BAD AXE        MOSUNNY   73  65  77 SW10      30.03S
CARO           MOSUNNY   74  66  78 S10       30.02S
DETROIT CITY   CLOUDY    71  64  78 SW8       30.07F
DETROIT        CLOUDY    73  64  73 S9        30.08S
FLINT          PTSUNNY   71  64  78 S9G20     30.05R
GROSSE ILE     PTSUNNY   70  64  83 S9        30.07R
HILLSDALE      CLOUDY    68  67  97 SW7       30.07F
HOWELL         CLOUDY    69  64  86 S7        30.05F

CITY           SKY/WX    TMP DP  RH WIND       PRES   REMARKS
JACKSON        CLOUDY    67  63  87 S13       30.06S
LAMBERTVILLE   CLOUDY    72  63  73 SW8       30.08S
LANSING        CLOUDY    70  63  78 S14       30.04S
LAPEER         FAIR      72  64  76 SW6       30.05S
MASON          CLOUDY    67  62  84 S3        30.04F
MONROE         PTSUNNY   73  64  73 SW10      30.06S
MT. CLEMENS    PTSUNNY   74  66  74 S13       30.05F
PONTIAC        CLOUDY    69  63  81 S6        30.06S
PORT HOPE        N/A    N/A N/A N/A SW8       30.00S
PORT HURON     MOSUNNY   72  66  83 S10       30.06S
TRI CITIES     CLOUDY    73  65  75 SW10      30.02R
MIDLAND        CLOUDY    73  65  74 S10       30.00R
TROY           CLOUDY    71  65  81 SW6       30.09S
SAGINAW HB     PTSUNNY   72  68  88 S12       30.01F
$$
MIZ043>046-050>051-056>058-064>065-071>073-077>080-261500-
SOUTHWEST LOWER MICHIGAN

CITY           SKY/WX    TMP DP  RH WIND       PRES   REMARKS
BATTLE CREEK   CLOUDY    68  63  84 S10       30.04F
BENTON HARBOR  CLOUDY    68  63  84 S5        29.99F
BIG RAPIDS     CLOUDY    68  64  86 SE8       29.98S FOG
COLDWATER      CLOUDY    67  63  87 S5        30.05F
FREMONT        CLOUDY    68  65  92 SW13      29.98S
HOLLAND        CLOUDY    71  65  81 S10       30.00S
GRAND RAPIDS   CLOUDY    71  65  81 S16       30.01R
IONIA          CLOUDY    70  63  78 S13       30.01S
KALAMAZOO      CLOUDY    68  63  84 S12       30.03S
LUDINGTON      CLOUDY    71  66  83 S15G22    29.95R
MARSHALL       CLOUDY    67  63  85 S8G16     30.05S
MOUNT PLEASANT CLOUDY    70  65  82 S9        30.00R
MUSKEGON       CLOUDY    69  64  84 S16G23    29.99R
SOUTH HAVEN    CLOUDY    69  64  83 S8        30.00R
$$
MIZ016>042-261500-
NORTHERN LOWER MICHIGAN

CITY           SKY/WX    TMP DP  RH WIND       PRES   REMARKS
ALPENA         SUNNY     76  62  62 W8        29.94F
BEAVER ISLAND  SUNNY     68  59  74 SW16G25   29.90S
BELLAIRE       SUNNY     75  64  68 S9        29.92S
CADILLAC       CLOUDY    67  64  90 S9        29.97F FOG
CHARLEVOIX     MOSUNNY   73  64  71 S9G16     29.94R
FRANKFORT      MOSUNNY   75  62  64 S10G20    29.92S
GAYLORD        MOSUNNY   72  64  76 SW16      29.96R
HARBOR SPRINGS CLOUDY    69  62  76 CALM      29.92R
HOUGHTON LAKE  CLOUDY    68  63  84 SW9       30.00R
MANISTEE       PTSUNNY   72  63  73 S8        29.94S
OSCODA         SUNNY     76  65  70 SW12      29.97F
PELLSTON       MOSUNNY   73  62  68 SW15G22   29.91S
ROGERS CITY    SUNNY     76  64  67 SW7       29.92F
TRAVERSE CITY  MOSUNNY   74  64  71 SW12G18   29.91R
$$
MIZ007>008-015-261500-
EASTERN UPPER MICHIGAN

CITY           SKY/WX    TMP DP  RH WIND       PRES   REMARKS
KINROSS        SUNNY     70  63  78 SW10G18   29.90S
MACKINAC ISLAN SUNNY     67  63  86 SW3       29.90S
NEWBERRY       FOG       56  56  99 SW15      29.88S VSB 1
S. S. MARIE    CLOUDY    67  60  78 S12       29.89F
$$
MIZ004>006-011>014-085-261500-
CENTRAL UPPER MICHIGAN

CITY           SKY/WX    TMP DP  RH WIND       PRES   REMARKS
MANISTIQUE     CLOUDY    48  47  96 S6        29.88S FOG
ESCANABA       SUNNY     66  57  72 S7        29.85F
MENOMINEE      SUNNY     70  61  73 SW8       29.85F
SAWYER-GWINN   MOSUNNY   66  61  82 SW7       29.85F
$$
MIZ001>003-009>011-084-261500-
WESTERN UPPER MICHIGAN

CITY           SKY/WX    TMP DP  RH WIND       PRES   REMARKS
IRON MOUNTAIN  CLOUDY    67  63  87 W5        29.84F
HOUGHTON       CLOUDY    52  51  97 W6        29.84R
COPPER HARBOR    N/A     49  47  93 N6        29.83R
IRONWOOD       CLOUDY    54  54 100 N3        29.83S
$$

ABBREVIATIONS USED IN REMARKS
   TC - TEMPERATURE IN CELSIUS
  WCI - WIND CHILL INDEX
   HX - HEAT INDEX
  VSB - VISIBILITY



USA.gov is the U.S. government's official web portal to all federal, state and local government web resources and services.